Ft Lauderdale, FL

6:52 AM EDT on May 28, 2017 (GMT -0400)
Fort Lauderdale-Hollywood International

Weather History for KFLL - June, 2014

Change the Weather History Date:

Saturday, June 14, 2014

  Actual Average Record
Temperature  
Mean Temperature 81 °F 83 °F  
Max Temperature 89 °F 89 °F 95 °F (1998)
Min Temperature 73 °F 78 °F 63 °F (1920)
Degree Days  
Heating Degree Days 0 0  
Month to date heating degree days 0 0  
Since 1 June heating degree days 0 0  
Since 1 July heating degree days 81 112  
Cooling Degree Days 16 18  
Month to date cooling degree days 226 249  
Year to date cooling degree days 1761 1667  
Since 1 June cooling degree days 226 249  
Growing Degree Days 30 (Base 50)    
Moisture  
Dew Point 73 °F    
Average Humidity 77    
Maximum Humidity 94    
Minimum Humidity 59    
Precipitation  
Precipitation T in 0.33 in 4.51 in (1967)
Month to date precipitation 3.68 4.58  
Year to date precipitation 24.28 22.07  
Snow  
Snow 0.00 in - - ()
Month to date snowfall 0.0  
Since 1 June snowfall 0.0  
Since 1 July snowfall 0.0  
Snow Depth 0.00 in    
Sea Level Pressure  
Sea Level Pressure 30.05 in    
Wind  
Wind Speed 8 mph (ESE)    
Max Wind Speed 18 mph    
Max Gust Speed 21 mph    
Visibility 10 miles    
Events Rain    
T = Trace of Precipitation, MM = Missing Value Source: NWS Daily Summary

Daily Weather History Graph

Daily Weather History Graph

Search for Another Location

Airport or City:

Trip Planner

Search our weather history database for the weather conditions in past years. The results will help you decide how hot, cold, wet, or windy it might be!

Date:

Astronomy

Jun. 14, 2014 Rise Set
Actual Time 6:28 AM EDT 8:13 PM EDT
Civil Twilight 6:02 AM EDT 8:39 PM EDT
Nautical Twilight 5:30 AM EDT 9:11 PM EDT
Astronomical Twilight 4:57 AM EDT 9:44 PM EDT
Moon 9:47 PM EDT (6/14) 8:01 AM EDT (6/14)
Length of Visible Light 14h 37m
Length of Day
13h 45m
Full, 97% of the Moon is Illuminated
Jun 14
Full
Jun 19
Last Quarter
Jun 27
New
Jul 5
First Quarter
Jul 12
Full

Hourly Weather History & Observations

Time (EDT) Temp. Heat Index Dew Point Humidity Pressure Visibility Wind Dir Wind Speed Gust Speed Precip Events Conditions
12:53 AM 75.0 °F - 73.0 °F 94% 30.04 in 8.0 mi Calm Calm - N/A   Scattered Clouds
1:53 AM 73.9 °F - 72.0 °F 93% 30.04 in 10.0 mi Calm Calm - N/A   Scattered Clouds
2:53 AM 73.9 °F - 72.0 °F 93% 30.02 in 10.0 mi Calm Calm - N/A   Partly Cloudy
3:53 AM 75.0 °F - 73.0 °F 94% 30.03 in 10.0 mi NW 4.6 mph - N/A   Partly Cloudy
4:53 AM 73.9 °F - 71.1 °F 91% 30.02 in 10.0 mi Calm Calm - N/A   Partly Cloudy
5:53 AM 73.0 °F - 71.1 °F 93% 30.02 in 10.0 mi Calm Calm - N/A   Scattered Clouds
6:53 AM 73.9 °F - 71.1 °F 91% 30.03 in 10.0 mi Calm Calm - N/A   Mostly Cloudy
7:53 AM 79.0 °F - 73.9 °F 84% 30.03 in 10.0 mi SE 6.9 mph - N/A   Mostly Cloudy
8:53 AM 82.0 °F 89.4 °F 75.9 °F 82% 30.05 in 10.0 mi SE 6.9 mph - N/A   Mostly Cloudy
9:53 AM 84.0 °F 91.2 °F 73.9 °F 72% 30.05 in 10.0 mi SE 13.8 mph - N/A   Mostly Cloudy
10:53 AM 86.0 °F 95.1 °F 75.0 °F 70% 30.07 in 10.0 mi SSE 10.4 mph - N/A   Mostly Cloudy
11:01 AM 86.0 °F 93.8 °F 73.9 °F 67% 30.07 in 10.0 mi SE 10.4 mph - N/A   Mostly Cloudy
11:23 AM 86.0 °F 93.8 °F 73.9 °F 67% 30.07 in 10.0 mi SSE 9.2 mph - N/A   Scattered Clouds
11:53 AM 87.1 °F 96.3 °F 75.0 °F 67% 30.07 in 10.0 mi ESE 11.5 mph - N/A   Mostly Cloudy
12:53 PM 88.0 °F 96.5 °F 73.9 °F 63% 30.06 in 10.0 mi SSE 13.8 mph - N/A   Mostly Cloudy
1:53 PM 87.1 °F 94.5 °F 73.0 °F 63% 30.05 in 10.0 mi SE 13.8 mph - N/A   Mostly Cloudy
2:53 PM 87.1 °F 93.6 °F 72.0 °F 61% 30.03 in 10.0 mi SE 17.3 mph - N/A   Mostly Cloudy
3:53 PM 86.0 °F 92.2 °F 72.0 °F 63% 30.01 in 10.0 mi SE 15.0 mph - N/A   Mostly Cloudy
4:53 PM 84.0 °F 91.9 °F 75.0 °F 74% 30.01 in 10.0 mi SSE 12.7 mph - 0.00 in Rain Light Rain
5:53 PM 84.9 °F 92.1 °F 73.9 °F 69% 30.01 in 10.0 mi SE 12.7 mph - 0.00 in   Mostly Cloudy
6:53 PM 84.0 °F 90.2 °F 73.0 °F 69% 30.04 in 10.0 mi SE 6.9 mph - N/A   Mostly Cloudy
7:53 PM 82.9 °F 89.4 °F 73.9 °F 74% 30.05 in 10.0 mi ENE 4.6 mph - N/A   Mostly Cloudy
8:53 PM 82.0 °F 87.9 °F 73.9 °F 76% 30.07 in 10.0 mi NNE 3.5 mph - N/A   Mostly Cloudy
9:53 PM 80.1 °F 84.2 °F 73.0 °F 79% 30.08 in 10.0 mi NNW 8.1 mph - N/A   Mostly Cloudy
9:58 PM 80.1 °F 84.2 °F 73.0 °F 79% 30.08 in 10.0 mi North 6.9 mph - N/A   Mostly Cloudy
10:38 PM 79.0 °F - 73.0 °F 82% 30.10 in 10.0 mi NNE 10.4 mph - N/A   Mostly Cloudy
10:53 PM 78.1 °F - 73.0 °F 84% 30.10 in 10.0 mi NNE 6.9 mph - N/A   Mostly Cloudy
11:53 PM 79.0 °F - 73.9 °F 84% 30.10 in 10.0 mi NE 5.8 mph - N/A   Mostly Cloudy